sat.trackr.live / text

‹ back to catalog

STARLINK-35521

NORAD 65916 · 2025-225G

PAYLOAD ACTIVE UNKNOWN

§ Identity

Operator
Country
US
Launch date
2025-10-08
Launch site
AFWTR
Launch vehicle
Mass (kg)
RCS (m²)

Purposes: comms

External: N2YO · Heavens-Above · Gunter

§ Orbital elements

Epoch: 2026-09-20T11:55:47.212608Z

Period
93.85 min
Inclination
53.1604°
Eccentricity
0.0000959
Mean motion
15.34409752 rev/d
Perigee alt
462.0 km
Apogee alt
463.3 km
Semi-major
6,840.8 km
B*
5.6587e-4
RAAN
338.0090°
Arg perigee
90.6947°
Mean anomaly
269.4166°
Rev number
5,427

§ Raw data

STARLINK-355211 65916U 25225G   26263.49707422  .00018797  00000+0  56587-3 0  99922 65916  53.1604 338.0090 0000959  90.6947 269.4166 15.34409752 54271

JSON: /api/v1/satellites/65916 · /tle

For live sub-satellite position, see the globe view (requires WebGL).

§ Visibility from observer

Set your observer location to see the next 7 days of passes ≥ 10°. The values pass through the URL so the page stays shareable.

No JS? Fill the form by hand. The geolocation button needs JavaScript.